{"data":{"norad_id":58638,"epoch":"2026-09-19T17:17:55.979520Z","epoch_age_seconds":217069,"freshness":"STALE","line1":"1 58638U 23203W   26262.72078680  .00000355  00000+0  22425-4 0  9997","line2":"2 58638  43.0033  51.5065 0000973 271.9654  88.1086 15.27579261153230","mean_motion":15.27579261,"eccentricity":9.73e-5,"inclination_deg":43.0033,"raan_deg":51.5065,"arg_perigee_deg":271.9654,"mean_anomaly_deg":88.1086,"bstar":2.2425e-5,"rev_number":15323,"period_min":94.266794317261,"perigee_km":482.38371524995,"apogee_km":483.71890249485,"semimajor_km":6861.1883088724,"source":"CELESTRAK","updated_at":"2026-09-21T09:00:33.941276Z"}}